Find Kosmos-2603

NORAD ID: 67677 Int'l Des: 2026-023 Owner: VVKOV Country: RU operational
LEOCIRCULARRETROGRADE

当前视图

正在加载3D地球...

关于 Kosmos-2603

正在加载描述...

即将过境

Passes for default location (London). Set your location on the main map for personalized predictions.

高度历史

Loading altitude history...

两行轨道根数

1 67677U 26023D 26146.60923831 .00010161 00000-0 41558-3 0 9992
2 67677 96.6331 210.6304 0018144 206.9741 153.0558 15.24348674 16712
Epoch: May 26, 2026 • Age: 8 hours

当前状态

高度 516.1 km
速度 7.60 km/s
星下点 -55.37°S, 2.24°E
发射日期 Feb 5, 2026
运行时间 0.3 years
类型 other

技术详情

分类 Payload
质量 500.00 kg
干质量 500.00 kg
总质量 500.00 kg
长度 3.00 m
直径 1.30 m
跨度 3.00 m
形状 Cyl + 2 Pan
制造商 UNKRU
平台类型 Unk
阶段状态 In Orbit
所有者/国家 VVKOV/RU

Most Searched